Theta_e
330 330 330 331 332 331 331 330 329 327 326 328 333 334 335 335 333 332 328 322 322 325 323 322 321 321 321 321 323 324 325 326 326 327 327 326 326 326 326 325 326 327 327 326 326 326 328 330 332 333 333 332 332 332 330 329 329 329 328 327 326 328 331 331 330 330 330 329 329 330 330 328 325 323 322 321 321 322 323 324 325 325 326 327 328
329 330 330 330 331 330 329 329 330 330 328 329 333 334 334 334 333 332 326 320 320 323 322 323 322 322 322 320 321 323 324 324 323 322 323 323 322 322 322 321 322 323 324 325 325 326 326 327 330 332 332 332 332 331 330 329 328 328 328 328 328 329 330 330 330 330 330 330 329 329 329 327 324 323 321 319 321 323 324 324 324 324 325 326 327
330 331 329 328 329 328 327 327 330 331 329 329 333 333 334 333 332 330 324 319 322 324 323 323 322 322 322 320 320 322 322 321 321 320 321 321 321 321 321 320 319 319 320 323 323 325 325 326 327 328 329 331 332 331 330 329 329 327 327 327 327 327 328 330 330 329 330 331 329 330 332 330 328 326 323 320 321 323 324 323 323 323 325 325 326
331 331 329 328 327 327 325 324 330 332 330 331 333 333 333 332 332 329 322 320 323 324 324 323 321 321 322 321 320 320 319 320 321 321 321 321 321 320 320 320 320 319 320 322 321 321 322 325 326 326 327 329 330 330 330 329 329 328 327 326 326 326 328 330 331 329 329 331 329 330 331 330 333 331 326 322 321 323 323 323 323 323 323 324 324
329 330 329 327 325 327 325 323 329 333 331 332 332 333 333 332 332 328 321 323 325 323 322 321 321 321 320 319 318 319 319 319 320 320 320 320 320 320 320 320 320 320 320 320 321 319 319 322 325 325 326 327 327 328 330 329 329 328 326 327 327 328 329 330 332 330 330 330 329 330 330 331 334 331 328 327 323 321 321 321 322 322 322 323 322
328 328 328 327 325 326 325 323 329 332 331 331 332 333 333 333 332 326 322 323 324 322 321 320 321 320 318 316 317 319 319 319 320 321 321 321 320 319 319 319 319 319 319 319 320 320 319 319 321 323 323 325 325 326 327 328 328 328 327 328 328 329 329 330 330 330 330 330 328 328 329 331 331 329 331 333 326 321 320 321 321 321 321 321 321
327 327 327 326 324 325 326 323 328 332 331 331 331 332 333 334 331 324 321 323 323 321 321 321 321 321 318 315 316 319 319 318 320 321 320 320 320 319 318 319 319 319 319 319 319 318 317 317 317 318 318 320 322 323 325 326 326 327 328 327 326 328 329 328 328 328 329 330 328 328 328 328 328 328 330 333 330 328 326 323 323 323 323 323 323
328 327 327 327 324 324 326 325 327 332 331 330 331 332 332 332 329 323 322 322 322 322 321 321 321 318 316 315 316 320 319 318 320 320 319 319 319 318 319 320 320 319 319 319 319 316 315 316 316 317 319 319 320 321 322 323 323 323 324 324 324 326 327 326 326 327 328 327 327 327 328 327 326 327 328 328 330 331 329 327 326 325 326 325 324
328 328 329 328 325 324 325 326 326 330 332 330 330 331 331 330 328 326 323 321 321 322 321 321 319 316 314 315 318 320 319 319 320 319 318 318 319 319 320 320 319 318 318 317 317 316 313 313 314 315 318 319 320 321 321 321 321 320 320 320 320 322 325 325 324 323 323 324 325 326 326 326 326 327 327 326 327 329 330 330 326 323 323 321 320
330 329 329 327 325 324 325 326 325 327 331 330 330 330 330 329 328 329 325 320 320 322 322 322 319 317 315 316 319 320 319 319 319 319 319 320 321 320 319 318 316 315 315 314 314 314 312 312 312 313 313 314 315 318 320 320 319 318 318 318 317 318 319 320 317 315 315 317 321 323 322 321 322 321 320 321 323 324 327 326 319 317 319 317 317
328 329 328 325 324 325 324 325 324 325 328 329 329 329 328 328 327 328 326 320 321 322 321 322 321 318 318 318 320 319 318 318 319 319 320 321 320 319 317 316 314 314 314 314 313 312 312 312 313 312 312 311 312 314 315 316 316 315 315 315 314 314 314 314 312 311 312 313 314 315 314 313 313 313 312 313 315 317 320 320 315 313 316 315 315
325 328 331 330 330 327 324 326 325 325 327 327 328 328 327 328 327 328 326 321 322 321 320 322 320 319 320 320 319 319 318 318 318 320 320 320 318 317 316 314 313 314 314 314 313 311 311 312 312 312 311 312 313 314 313 313 313 313 312 310 308 308 310 311 310 309 309 310 310 310 310 309 309 309 310 311 311 312 314 315 313 313 314 314 313
325 328 332 336 338 331 326 327 327 327 328 326 328 328 328 330 328 328 327 323 323 321 319 322 319 318 321 320 318 319 318 317 318 320 320 319 318 317 316 315 313 314 314 313 312 312 312 311 312 313 312 312 312 312 312 312 311 310 308 305 301 301 304 306 306 307 307 309 309 309 308 307 308 309 310 310 311 311 311 311 311 312 313 313 313
327 328 331 334 336 330 326 328 328 327 328 327 328 328 328 329 327 328 327 325 325 320 318 321 318 317 321 320 318 318 318 317 317 319 320 318 318 317 316 316 314 313 314 313 312 313 313 312 312 312 312 312 311 310 310 310 309 308 307 305 302 300 300 300 301 302 304 307 307 307 306 306 307 309 309 309 310 310 310 311 311 312 312 312 312
328 330 334 334 330 326 327 330 329 328 328 327 327 327 326 327 328 328 327 326 325 319 317 321 318 317 321 320 317 318 318 317 317 318 319 318 318 317 317 316 315 314 314 313 313 314 314 313 311 309 309 311 312 312 311 310 309 308 309 308 304 301 300 299 299 299 302 306 307 306 304 302 304 307 308 308 309 310 310 311 311 314 315 315 312
330 331 333 334 328 325 328 331 331 329 328 327 327 327 327 327 328 328 327 326 323 317 317 321 319 318 321 320 317 318 318 317 318 318 318 318 318 318 317 317 316 315 314 313 314 315 315 314 310 308 308 308 311 312 311 311 310 309 308 307 306 306 304 302 301 300 303 307 308 307 305 302 302 304 305 304 305 309 310 310 310 312 315 317 316
329 329 330 332 326 325 328 330 331 329 328 328 328 327 327 325 325 325 326 326 323 320 319 321 320 319 321 320 317 318 318 317 318 318 317 318 318 317 317 317 316 316 315 314 315 316 315 313 311 309 308 306 308 311 310 311 309 308 308 309 311 312 310 307 306 303 303 306 307 308 308 306 303 303 305 303 304 307 309 309 309 309 311 314 316
328 328 329 329 325 323 327 328 329 329 328 328 327 327 327 325 325 324 324 324 323 324 322 321 323 323 322 321 318 319 318 318 318 318 318 317 318 318 317 317 316 316 316 314 315 316 315 314 312 311 308 307 310 311 310 310 310 309 309 311 312 312 311 310 310 307 304 303 305 308 309 308 304 304 307 306 305 306 307 307 307 308 309 311 312
327 326 328 329 325 322 324 325 327 328 327 327 327 327 327 327 327 326 324 323 324 325 323 322 324 324 323 321 318 318 318 318 318 317 317 317 317 318 318 318 317 317 317 315 315 316 316 315 314 312 310 309 311 312 311 310 311 311 310 311 311 309 309 310 310 309 306 304 304 306 308 308 305 304 306 308 307 307 307 307 306 307 308 308 309
327 325 327 329 324 321 323 323 324 325 326 326 326 326 326 325 326 325 324 324 325 325 323 322 323 322 323 322 319 317 317 318 318 317 317 318 316 317 318 318 318 318 317 316 316 316 316 315 315 315 313 312 312 312 311 310 311 311 310 311 310 309 310 310 309 308 307 306 306 306 308 307 304 304 306 308 308 307 307 307 307 308 308 308 308
328 326 327 328 323 321 322 322 322 323 325 326 325 325 325 324 324 324 323 324 324 324 323 322 321 322 322 322 322 320 318 319 319 317 318 318 316 316 317 318 318 318 318 318 317 316 316 315 315 316 316 314 313 312 312 310 311 312 311 311 310 310 312 311 309 308 307 307 308 308 309 308 305 304 305 306 307 306 306 307 308 308 308 309 309
328 326 327 326 321 320 321 321 321 321 322 324 325 325 325 325 325 323 324 325 324 323 322 321 321 322 322 322 323 322 321 321 320 317 317 319 318 317 318 318 319 319 319 319 318 317 317 316 316 316 316 316 314 313 313 311 311 312 311 311 311 310 311 311 309 309 309 308 307 308 308 308 307 305 303 304 305 306 306 307 307 307 307 307 307
328 328 328 323 319 319 320 319 319 318 319 321 322 323 324 325 325 324 324 325 324 322 322 322 322 323 322 322 322 321 320 321 321 319 318 319 319 318 320 321 320 320 319 319 318 318 318 317 316 317 317 318 317 315 314 312 311 312 312 311 311 311 310 310 310 310 309 308 307 307 307 307 308 307 304 305 306 306 306 307 306 306 306 305 305
326 327 326 320 317 319 318 317 317 317 317 319 319 321 321 322 324 324 324 324 323 322 323 322 322 322 321 321 321 321 320 319 319 320 319 319 318 318 320 321 321 321 319 319 319 318 318 317 317 318 318 318 318 316 315 314 312 312 313 312 312 312 310 309 310 310 309 308 308 308 307 307 308 308 306 306 307 307 306 306 306 305 305 305 305
323 324 324 322 319 317 316 316 316 316 316 317 318 318 318 318 320 321 322 322 323 323 323 322 321 320 321 321 320 320 320 320 320 320 320 319 319 319 319 319 320 321 320 319 319 319 319 319 318 319 319 319 319 318 317 316 314 313 313 313 313 312 311 309 310 310 309 308 309 309 308 308 308 308 307 306 306 307 307 306 306 305 305 305 305
322 323 323 321 320 316 314 316 315 315 316 316 316 316 316 316 317 319 321 323 323 324 323 323 323 323 325 324 322 323 323 323 321 321 320 320 320 319 319 319 319 319 319 319 319 319 319 319 319 319 319 318 319 319 318 317 316 314 313 313 313 313 312 310 309 310 310 309 309 309 308 308 308 307 307 306 306 307 306 306 305 305 305 305 304
321 322 321 320 318 316 314 314 314 313 313 314 314 313 314 315 315 317 320 321 321 322 322 323 324 324 325 325 324 323 323 323 323 322 321 321 320 320 320 319 319 318 318 318 318 318 318 318 317 316 315 315 316 317 318 318 317 316 314 314 313 313 313 311 310 310 310 309 309 308 308 307 307 307 306 306 306 306 305 305 305 304 303 302 301
321 320 319 317 317 316 313 312 312 312 312 312 312 311 311 312 312 313 316 317 319 319 319 320 321 320 319 319 320 320 318 319 320 319 319 319 319 319 319 319 319 319 318 317 317 317 317 317 316 313 313 313 314 315 316 317 318 317 316 314 313 313 313 312 311 310 310 309 309 308 308 307 306 306 306 305 305 305 305 304 303 300 298 297 297
326 323 319 317 319 318 313 310 311 311 311 311 311 311 310 311 310 311 311 313 314 314 314 316 318 317 315 314 316 317 315 316 316 316 316 317 318 317 317 317 318 318 318 318 317 317 316 316 316 314 314 315 316 315 316 316 318 318 317 316 314 314 313 312 311 311 310 309 309 308 307 307 306 305 305 305 305 305 304 302 298 295 293 293 294
325 323 319 318 321 317 311 309 311 310 310 310 309 310 309 309 309 309 310 310 311 311 311 312 312 312 312 312 313 314 314 314 316 317 316 315 315 315 314 316 316 316 316 316 315 315 316 316 316 316 316 316 317 317 316 317 318 319 317 316 315 314 313 312 311 311 310 309 308 307 307 305 305 305 304 304 304 304 303 300 298 296 295 294 295
321 322 319 317 319 316 310 309 310 310 311 310 309 309 309 309 309 309 309 309 309 310 310 310 311 311 312 313 312 312 313 314 315 315 314 313 315 315 315 315 315 314 314 315 314 314 314 315 316 316 316 316 317 318 318 317 319 319 318 317 316 314 313 312 312 311 310 309 308 307 306 305 304 304 303 303 303 302 301 300 299 298 298 298 298
321 323 321 318 318 316 312 309 310 310 311 310 309 309 308 308 308 308 308 308 308 308 308 308 309 310 310 311 310 310 311 312 311 311 311 312 313 314 314 315 316 316 316 316 316 316 314 314 316 316 316 316 317 318 318 318 318 319 319 317 316 314 313 312 312 312 311 309 308 307 306 305 304 303 303 303 302 302 302 301 299 299 299 299 298
320 321 321 318 316 314 311 309 309 309 310 310 309 308 307 307 307 308 308 308 308 309 308 308 308 308 308 308 308 309 309 309 309 309 309 309 310 310 311 313 315 316 316 316 315 316 316 316 317 318 319 319 319 319 319 319 319 319 318 317 315 314 313 313 312 312 311 309 308 307 305 304 303 303 303 303 303 302 302 301 300 300 299 299 298
316 317 319 316 312 310 309 308 308 307 308 309 309 308 308 307 307 308 308 307 307 308 308 307 307 307 307 307 308 309 309 308 309 309 308 308 309 309 309 311 312 314 314 314 314 314 315 316 317 317 319 320 320 320 320 320 320 319 318 316 314 314 313 312 311 310 309 307 306 305 304 303 303 303 303 303 303 302 301 301 300 300 300 299 298
313 314 314 312 310 309 307 307 308 307 307 308 308 308 308 308 307 307 307 307 307 307 307 306 306 307 307 307 309 309 308 308 308 308 308 308 308 308 308 309 311 313 314 313 313 313 314 315 315 315 316 317 318 318 318 318 318 318 316 314 313 313 312 310 308 307 306 305 304 304 304 303 303 303 303 303 302 302 301 301 300 300 299 298 297
311 310 310 309 308 308 308 308 308 308 307 307 307 308 308 307 307 308 307 307 307 307 307 307 307 306 306 308 309 308 308 307 307 308 307 307 308 308 308 309 310 311 313 313 313 312 313 315 315 315 315 316 316 316 316 314 314 314 313 311 311 310 308 307 307 306 305 304 304 304 304 303 303 302 302 302 302 301 301 300 300 299 298 298 297
310 309 309 308 307 307 308 308 307 307 306 306 306 306 307 307 307 308 307 307 307 307 307 307 307 306 306 308 308 308 308 307 307 307 307 307 307 307 307 308 309 310 311 312 312 312 313 315 316 316 316 316 316 315 312 311 310 311 310 308 308 307 305 305 305 304 304 304 304 303 303 303 302 302 301 301 301 301 301 300 299 298 298 298 297
310 309 308 308 307 307 308 307 307 306 306 306 306 306 306 307 307 307 307 307 307 307 306 306 306 306 306 308 308 308 308 308 307 307 307 307 307 307 306 307 307 308 309 310 312 313 313 313 314 315 316 316 315 313 311 309 309 309 308 307 306 305 303 303 303 303 303 303 303 303 302 302 302 301 302 301 301 301 300 299 298 298 297 297 297
307 308 307 307 307 308 307 307 307 307 306 305 306 306 306 306 306 306 306 306 306 306 305 306 306 306 306 306 307 307 308 308 308 307 307 307 307 307 307 307 307 307 308 310 312 313 313 313 313 314 314 314 314 313 310 309 308 307 308 307 305 303 302 302 302 302 302 302 302 302 302 302 301 301 301 301 300 299 298 297 297 296 296 296 296
304 304 304 304 305 306 306 305 305 306 305 305 305 306 306 306 305 305 305 305 305 305 305 305 306 306 306 306 305 306 306 307 307 307 307 308 308 308 308 307 307 307 307 309 311 312 312 313 313 313 313 313 313 312 310 308 306 305 306 305 304 302 301 301 300 300 299 299 300 301 301 300 300 300 299 299 298 297 296 296 296 295 294 294 294
302 302 303 303 303 304 304 304 304 304 304 304 304 305 305 305 305 305 305 305 305 305 305 305 305 306 306 306 305 305 305 306 306 307 308 308 308 308 307 306 306 307 308 310 311 311 312 312 312 312 312 311 311 311 309 306 304 304 304 303 302 301 300 300 300 299 298 297 297 298 298 298 298 297 297 296 296 296 296 295 294 294 293 293 292
301 301 301 302 303 303 303 303 303 303 303 303 304 304 304 305 305 305 305 305 305 305 305 305 305 305 305 305 305 305 304 305 305 306 307 307 308 308 307 306 306 308 309 311 311 311 311 310 309 309 310 310 309 309 308 305 302 302 302 301 300 299 298 299 299 298 297 297 297 297 297 297 296 296 296 296 296 295 294 294 293 293 293 292 292
300 300 300 301 301 302 302 302 302 302 302 303 303 303 303 304 304 304 304 304 304 305 304 304 305 305 304 304 304 304 304 304 304 304 304 305 305 307 308 308 308 309 310 311 310 310 309 308 307 306 307 307 307 306 304 302 300 299 299 299 298 297 296 296 296 296 296 296 296 297 297 296 297 297 296 295 294 294 293 293 293 293 292 292 292
299 299 299 300 300 300 301 301 302 302 302 302 302 302 303 303 303 303 303 304 304 304 304 304 304 304 304 304 304 304 304 303 303 303 303 303 304 305 307 308 309 310 311 310 309 308 307 305 304 304 304 305 304 302 300 299 298 298 297 297 295 294 293 293 293 294 294 294 296 297 296 296 296 296 295 294 293 293 293 293 293 293 293 292 292
298 298 299 299 299 299 300 301 301 301 302 302 302 302 302 302 302 302 302 302 303 303 303 303 304 304 304 304 304 304 304 304 303 303 303 304 304 304 306 308 310 311 311 309 307 306 305 303 303 302 302 301 300 298 297 297 297 296 294 294 293 293 294 294 293 294 294 295 296 296 296 296 295 294 294 293 293 293 293 293 293 293 292 292 292
298 298 298 299 299 299 299 300 300 300 301 301 302 302 302 302 302 302 302 302 302 303 303 303 303 303 303 304 304 304 303 303 304 304 304 304 304 304 306 309 311 311 311 309 306 305 303 301 301 300 300 298 297 296 295 294 293 293 294 295 295 295 296 296 295 295 296 296 296 296 295 295 294 294 294 294 293 293 293 293 293 292 292 292 291
298 298 298 298 298 299 299 299 299 299 300 300 301 301 301 302 302 302 302 302 302 303 303 303 303 303 302 303 303 304 304 304 304 304 304 304 304 305 308 310 311 311 310 309 306 304 302 301 300 298 297 296 294 293 293 293 292 294 295 296 296 296 296 296 296 296 296 296 295 295 294 294 294 294 294 293 293 293 292 292 292 291 291 291 291
298 298 298 298 298 299 299 299 299 300 300 300 300 300 300 301 301 301 302 302 302 302 302 302 302 302 302 303 303 303 303 303 303 303 303 304 306 307 309 310 310 310 309 308 305 303 302 302 301 298 296 294 292 292 293 294 295 295 296 296 296 296 296 295 295 295 294 293 293 294 294 294 293 293 293 292 292 292 292 292 291 291 291 291 291
298 298 298 298 299 299 299 299 299 299 299 299 300 300 300 300 300 301 301 302 302 302 302 302 302 302 302 303 303 303 303 302 303 303 303 305 308 309 309 310 310 309 309 308 306 304 302 302 301 298 295 293 293 294 295 296 297 296 296 296 295 295 294 293 293 292 293 293 293 293 293 293 292 292 292 292 292 292 292 291 291 291 291 291 291
299 299 299 299 299 299 299 299 299 299 299 299 300 300 300 300 300 300 301 301 302 302 301 301 302 302 302 302 302 303 303 302 303 304 304 305 307 308 308 308 308 308 308 307 306 304 302 301 300 297 294 294 295 296 296 296 295 295 294 293 293 292 291 291 292 292 293 293 293 292 292 292 292 292 292 292 291 291 291 291 291 291 291 291 291
298 298 298 298 299 299 299 299 299 299 299 300 300 300 300 300 300 301 301 301 302 302 302 302 302 302 302 302 302 302 303 302 303 304 305 305 305 305 306 306 307 306 306 305 304 302 301 300 299 297 296 296 296 296 295 293 292 292 291 291 291 291 291 292 292 292 293 292 292 292 292 292 291 291 291 291 291 291 291 291 291 291 291 290 290
Wind_Speed
12 20 25 23 22 23 20 22 27 28 29 26 25 27 26 25 24 21 20 18 19 18 17 17 14 14 14 14 16 17 18 18 17 14 13 13 11 11 10 11 10 8 7 6 6 6 7 8 9 11 15 17 16 14 13 13 14 14 13 14 13 11 9 6 8 10 7 4 1 2 3 5 7 7 7 7 7 8 9 8 7 5 2 3 3
10 14 20 23 24 26 24 23 24 27 31 28 26 29 27 25 24 22 20 18 20 19 18 18 15 15 15 15 17 18 17 16 15 12 10 10 11 11 11 11 10 9 7 6 6 6 6 7 8 10 12 14 14 13 13 13 14 14 13 13 11 8 5 4 7 9 6 5 4 1 2 5 6 7 7 8 7 7 8 7 5 5 3 2 2
8 7 11 17 23 26 24 23 25 27 31 29 27 29 27 25 24 22 20 19 20 18 17 17 14 13 16 18 20 21 18 15 15 15 12 11 10 11 11 10 9 8 9 10 9 7 5 6 8 7 7 9 12 13 13 13 13 13 12 12 10 7 5 5 8 9 7 7 6 2 0 2 4 6 7 7 7 7 7 7 5 4 5 3 2
9 8 9 13 21 26 25 24 26 28 30 29 28 29 27 26 25 22 21 19 19 18 17 17 15 16 20 22 23 23 21 19 18 16 14 12 11 10 10 11 11 10 11 11 11 11 8 6 7 7 6 6 8 11 12 12 12 11 11 11 9 9 8 6 6 9 9 7 4 2 1 1 2 4 5 5 6 8 7 6 6 5 4 4 4
13 11 11 11 16 24 26 26 26 27 29 29 30 30 27 28 26 23 22 20 18 19 20 20 20 23 26 25 24 23 21 20 19 16 14 14 13 12 11 10 11 12 11 10 9 10 11 8 9 8 6 6 5 6 8 8 8 9 9 10 9 8 8 6 5 7 9 8 5 3 2 1 2 2 2 4 5 6 6 5 5 6 6 5 6
13 13 12 12 15 21 24 26 25 27 30 31 31 30 28 29 27 24 23 22 20 22 22 20 22 24 25 24 23 23 22 20 20 20 18 16 15 13 12 11 11 12 12 11 10 10 10 11 12 12 9 8 6 5 6 7 7 7 6 6 7 7 7 7 8 7 7 8 7 5 2 2 3 3 2 2 4 4 4 4 4 5 6 7 8
11 13 14 13 15 18 21 25 27 28 32 33 32 30 29 29 28 25 25 23 21 22 22 20 21 21 19 19 20 23 22 20 21 21 20 17 16 14 14 13 13 13 13 12 12 12 11 10 11 11 12 13 13 11 9 8 8 7 6 4 4 5 7 8 9 9 8 7 7 5 3 3 2 3 2 0 2 3 3 3 4 5 6 8 9
14 14 14 13 15 19 23 28 30 31 34 35 33 30 29 30 28 25 26 25 22 22 22 21 20 18 17 18 21 23 22 22 24 22 19 18 17 16 16 15 14 13 12 11 12 12 13 13 11 11 13 13 14 15 14 13 13 11 10 9 9 7 6 6 8 8 8 7 6 4 2 3 4 3 3 2 1 1 3 4 6 6 7 8 9
13 12 12 12 15 22 26 30 31 33 37 37 35 33 30 29 28 26 26 27 25 22 22 20 19 18 20 22 24 24 24 25 25 21 19 19 19 17 16 15 13 12 11 10 10 11 14 16 14 13 12 10 11 13 13 12 12 12 12 12 13 13 10 9 10 9 8 7 6 5 3 2 2 2 2 2 2 1 2 4 6 7 8 10 10
9 9 9 11 19 27 30 32 32 32 36 38 37 35 32 30 29 26 26 28 27 24 23 21 20 20 23 24 26 27 27 26 24 21 21 21 21 18 16 15 14 13 12 11 11 10 12 15 15 15 13 10 10 10 10 10 11 11 11 11 13 15 14 14 15 14 13 11 9 8 7 5 4 4 4 4 1 1 2 3 6 9 9 11 12
7 5 3 3 12 20 23 26 25 25 30 34 35 36 35 32 31 29 27 29 29 27 25 23 21 22 24 26 29 30 28 26 25 24 23 24 21 18 17 16 15 14 13 13 12 11 11 13 15 15 13 13 13 12 12 11 11 11 10 9 10 12 13 13 13 13 13 13 12 11 11 10 8 7 7 8 6 3 2 3 8 12 10 11 14
8 7 5 3 3 10 15 18 19 22 27 31 34 37 36 33 33 32 30 32 32 29 28 26 23 23 24 28 30 29 27 27 27 27 27 26 22 20 19 17 15 14 13 12 12 12 12 13 14 14 13 14 14 14 13 12 12 11 10 9 9 9 9 9 9 9 10 11 11 10 10 9 9 8 7 7 7 6 5 3 7 10 8 11 16
8 6 5 4 2 6 12 16 18 24 31 35 37 38 38 36 35 33 30 33 34 32 30 27 25 23 25 30 30 28 28 28 27 28 28 26 23 22 21 19 17 15 13 13 13 12 12 13 14 13 13 13 12 11 11 12 11 11 11 11 11 11 9 8 9 8 8 9 9 8 7 6 7 7 6 6 6 6 8 6 6 8 6 9 14
7 5 5 4 4 3 6 12 18 24 28 32 35 36 36 35 33 29 27 30 33 32 30 28 26 24 25 30 29 28 30 28 28 29 27 26 25 24 21 19 18 16 15 13 13 13 11 10 11 11 12 12 11 10 10 11 11 11 12 11 11 11 10 10 10 9 9 8 7 6 5 4 5 5 4 5 4 5 7 6 6 7 6 7 10
6 6 6 5 6 7 5 4 15 25 28 31 35 36 36 34 33 29 26 29 31 30 28 27 26 24 25 30 30 29 31 28 28 29 27 27 27 24 21 19 17 17 16 14 13 13 11 9 9 9 11 12 11 10 10 10 10 10 10 9 9 10 10 10 10 10 10 9 7 5 5 5 4 4 2 3 3 4 5 6 6 5 4 6 7
7 7 7 7 9 11 9 4 10 24 30 29 27 25 23 22 24 27 29 32 31 30 29 28 27 24 23 30 31 30 31 29 29 30 28 28 27 23 21 19 18 18 17 15 14 13 11 9 8 8 9 11 11 11 11 9 8 8 8 9 9 8 8 9 9 10 10 9 7 5 5 6 4 3 3 3 3 3 4 5 7 7 4 3 4
7 6 6 6 8 12 8 7 9 13 20 21 20 18 15 11 11 14 17 22 23 25 30 30 28 24 21 26 31 30 30 29 29 31 28 27 27 23 21 20 20 20 18 16 15 14 11 8 8 8 7 9 10 10 9 7 6 7 8 8 8 7 5 6 7 7 7 8 7 4 3 5 5 5 6 7 6 5 5 5 6 7 5 3 2
7 5 5 5 7 12 11 12 18 18 18 20 19 20 19 15 13 10 8 13 16 20 28 30 26 22 18 22 27 28 28 28 29 30 28 27 27 24 22 22 22 22 20 18 17 15 12 9 9 9 8 9 10 9 8 7 6 6 7 6 6 6 5 4 4 4 4 5 6 5 2 3 5 6 7 8 8 7 5 4 3 4 5 4 2
6 4 4 5 7 13 16 16 18 19 19 20 19 18 19 20 22 23 20 22 24 23 26 28 23 21 19 22 26 26 26 27 28 28 26 26 26 24 24 24 24 23 22 19 18 15 13 11 10 10 9 10 11 10 8 8 8 7 6 7 6 5 5 4 4 3 1 2 4 5 3 1 3 3 3 4 6 6 6 5 3 2 2 3 3
6 3 3 5 8 13 17 19 19 18 18 21 25 25 24 25 28 31 29 27 27 26 27 26 23 22 20 21 25 25 24 25 26 27 26 25 25 23 24 25 25 25 23 20 18 15 13 12 11 10 10 10 11 11 10 9 10 8 8 9 7 6 7 7 5 4 4 1 2 4 3 1 2 1 0 1 2 3 4 5 4 2 1 2 4
6 4 4 5 8 13 17 19 21 22 21 21 26 28 28 30 32 34 32 28 25 25 27 25 23 22 18 16 19 22 22 20 24 28 25 24 25 23 23 24 25 26 24 21 18 16 13 12 12 12 11 11 12 12 11 11 11 10 10 10 9 8 9 9 7 5 5 4 2 2 3 3 3 1 1 1 3 5 6 7 7 6 4 3 5
7 5 4 4 7 12 15 18 21 23 23 21 20 20 23 29 33 32 30 28 24 24 25 25 23 20 18 16 16 18 17 16 22 28 24 23 23 21 20 23 25 26 25 21 19 16 14 13 13 13 12 11 12 13 13 13 12 11 11 12 11 11 12 11 10 8 8 7 5 5 5 6 5 3 3 2 3 3 3 5 5 4 4 4 5
7 6 5 5 9 13 15 17 19 21 22 23 21 17 14 18 25 27 24 23 24 25 25 23 22 20 18 17 16 16 14 13 19 24 22 21 20 17 17 22 26 27 25 21 19 18 16 15 14 14 14 14 14 14 15 14 14 14 14 14 14 13 13 13 13 12 11 10 9 7 6 6 6 5 5 3 3 4 4 5 5 2 3 6 6
8 6 6 7 10 12 13 15 17 18 20 22 22 20 18 15 16 20 20 21 23 26 24 22 23 22 17 16 18 18 16 14 17 20 20 19 18 16 17 20 25 27 25 22 21 20 19 17 16 14 13 15 16 17 17 17 17 17 17 16 16 16 14 14 15 15 13 12 13 11 7 7 8 8 6 4 4 6 6 6 6 5 4 6 7
8 8 7 7 8 8 10 13 15 17 19 20 22 22 22 21 18 15 14 14 18 22 21 19 22 22 20 19 21 20 18 16 16 18 19 18 18 18 17 18 22 25 25 22 19 18 17 15 14 12 11 11 13 17 19 20 19 19 20 19 19 19 17 15 15 16 14 13 15 13 9 9 10 10 7 6 6 7 7 6 6 7 7 8 9
8 8 7 7 6 6 8 12 14 17 18 19 20 21 21 21 21 19 16 14 13 17 18 16 18 21 20 19 19 19 18 18 17 17 18 18 18 17 17 16 17 20 21 19 17 16 15 13 10 8 8 10 12 15 18 22 23 22 21 21 21 21 19 17 17 17 14 13 14 13 10 10 11 10 9 8 8 9 8 8 9 8 9 10 10
6 7 6 6 7 7 8 11 14 17 19 19 19 19 19 19 19 19 19 19 18 17 18 19 19 20 18 17 16 13 10 12 15 16 15 14 13 13 14 13 12 14 14 14 14 13 14 14 10 9 12 16 19 19 19 22 25 25 24 23 24 23 21 19 19 18 16 14 14 13 12 10 10 10 10 10 10 10 9 9 9 9 10 11 11
4 6 7 7 7 7 8 11 14 17 19 19 19 19 19 18 17 17 16 17 17 17 18 19 18 18 16 15 16 15 11 8 6 9 10 9 8 7 8 9 10 11 12 13 13 14 16 18 17 16 17 21 25 26 25 25 26 27 28 27 26 25 23 21 21 19 17 16 15 13 12 11 11 11 12 12 12 11 10 9 9 11 12 12 12
4 4 5 7 7 6 8 12 15 17 18 19 21 20 19 18 16 15 15 14 13 14 15 15 14 12 10 7 8 9 7 3 2 3 6 7 6 4 3 6 9 10 12 13 14 15 17 19 20 20 22 25 27 28 28 28 27 28 31 30 29 28 25 23 21 19 18 17 14 13 13 12 12 13 13 13 13 12 11 11 12 13 12 11 11
4 2 3 6 7 7 10 14 16 18 19 19 20 20 19 17 16 15 15 15 15 16 16 15 14 13 12 10 10 11 12 12 9 6 7 7 4 3 3 5 7 7 9 11 12 13 15 17 19 22 23 25 26 27 27 27 28 30 32 32 30 29 27 25 22 20 19 17 14 14 13 13 13 13 14 14 14 13 13 14 14 12 11 10 9
2 2 2 4 7 7 9 12 14 17 19 19 19 19 18 16 15 14 14 14 15 15 15 15 15 13 13 14 13 12 13 14 12 9 9 8 6 4 4 6 7 8 10 12 14 16 16 16 18 20 21 23 26 28 28 28 28 29 31 32 32 30 28 26 24 23 21 19 17 16 14 13 14 15 16 15 14 14 15 15 12 10 9 8 7
3 2 6 4 3 6 8 10 14 17 17 18 19 18 18 16 14 13 13 13 13 13 13 13 12 11 12 13 12 11 13 14 12 10 9 8 7 6 5 7 9 11 12 12 15 17 17 18 19 19 21 23 26 28 28 27 27 28 30 32 32 30 28 27 25 24 23 21 19 17 16 15 16 16 17 17 16 16 16 15 13 10 9 8 8
8 8 2 7 7 4 9 12 14 15 14 14 17 17 15 13 12 13 12 12 12 12 12 11 10 10 13 13 11 11 14 13 10 9 7 7 6 5 3 4 5 6 8 9 9 10 11 11 12 14 17 20 23 26 25 24 24 26 27 27 28 29 30 29 26 24 23 21 19 17 16 16 15 14 16 17 16 16 16 15 14 12 11 10 9
4 7 9 7 8 8 14 17 14 15 14 11 14 15 12 11 11 11 11 11 12 12 11 10 10 10 10 10 10 13 14 11 8 7 5 5 4 2 1 2 2 2 3 4 4 5 7 6 6 7 8 10 15 18 20 21 22 21 19 21 24 26 27 25 23 23 22 19 17 17 17 15 12 12 14 16 16 16 15 14 14 13 12 11 10
8 8 9 9 8 10 15 16 13 12 11 8 10 11 9 8 9 10 10 10 13 14 12 10 10 9 8 9 10 11 10 8 7 6 5 5 4 2 2 1 2 3 4 5 5 6 7 8 10 9 6 8 11 13 15 17 18 16 15 19 23 24 23 21 19 17 17 16 15 16 15 13 10 9 11 12 14 14 15 15 14 13 12 12 12
9 10 11 13 16 15 14 13 12 12 12 8 6 5 4 3 5 9 9 7 9 13 14 13 12 9 8 10 10 8 7 6 6 6 6 4 4 3 3 2 2 3 5 6 7 8 8 9 11 11 9 9 10 11 11 9 8 10 13 17 19 19 18 17 15 13 13 14 13 12 11 10 10 10 11 11 12 13 15 15 14 13 13 14 15
10 13 14 16 18 18 18 16 14 13 13 11 7 5 4 3 1 4 5 5 6 9 11 13 12 8 9 11 11 8 8 8 7 7 5 4 4 4 3 4 4 4 5 7 8 9 8 8 9 9 9 7 7 7 7 5 7 11 13 14 13 13 11 11 11 10 9 9 8 10 11 11 11 12 13 14 15 16 16 15 14 14 15 16 17
9 13 11 9 9 9 11 11 12 14 14 10 8 8 7 7 7 5 4 3 1 2 3 6 8 7 8 11 11 9 10 9 8 7 5 4 5 5 4 5 5 6 7 8 10 10 9 8 8 9 8 6 5 6 7 8 9 11 12 11 10 10 9 8 8 6 4 6 8 11 12 12 13 13 14 15 16 16 15 14 13 14 14 15 16
8 10 9 7 5 5 6 3 3 7 11 10 8 7 7 7 7 8 9 8 6 5 5 3 3 3 3 5 6 7 9 9 7 7 6 6 6 6 6 6 6 7 8 9 10 12 10 9 10 10 8 6 6 8 9 10 10 11 12 12 11 9 8 7 6 4 3 5 9 12 13 13 13 13 14 14 14 13 12 11 11 12 14 15 16
14 13 14 14 10 7 6 5 3 5 7 9 8 8 7 6 5 7 9 10 9 7 6 5 4 3 2 1 0 2 4 7 10 11 10 10 8 7 7 7 8 9 10 9 11 13 12 12 12 11 9 7 7 8 10 12 12 11 11 11 11 10 9 8 7 6 4 2 4 7 8 8 8 10 11 10 9 9 9 10 12 14 16 17 18
20 20 20 18 15 12 10 12 13 11 9 10 10 9 7 6 5 6 8 10 11 10 9 8 7 5 4 4 5 6 6 7 10 12 12 12 11 10 9 9 10 11 11 8 10 13 13 13 12 10 9 8 7 8 11 12 12 11 11 10 9 10 10 8 8 7 6 4 1 2 3 3 4 6 6 5 7 10 12 14 15 16 16 16 17
23 24 23 20 18 16 14 14 16 15 13 12 11 10 9 7 6 7 9 10 11 11 10 10 8 7 7 8 8 9 9 7 6 7 8 9 10 10 10 10 11 12 9 8 13 15 15 14 12 10 10 9 9 10 12 13 12 11 11 10 9 9 8 7 7 6 4 5 3 3 4 2 2 3 5 8 11 13 14 14 14 13 13 14 14
21 23 24 22 20 17 17 17 18 19 19 17 14 13 12 10 10 12 14 14 13 12 11 11 11 10 10 9 9 10 11 11 10 10 10 10 10 11 11 12 12 11 9 13 15 15 15 14 14 12 11 10 11 12 13 13 12 11 11 11 10 9 7 5 5 5 2 2 2 2 2 3 5 7 10 12 12 12 12 11 10 11 12 12 13
19 21 23 24 23 22 23 23 23 23 22 21 19 17 14 11 11 11 13 13 12 11 12 12 13 13 13 14 15 15 15 15 15 15 16 15 15 14 15 14 13 11 12 15 16 15 15 15 15 15 13 12 13 14 13 12 12 12 11 10 9 7 5 4 3 3 3 3 4 4 6 8 10 12 13 12 10 9 8 8 8 10 11 12 14
21 21 22 22 23 25 26 25 25 26 26 26 25 21 17 14 13 13 14 15 16 16 16 15 15 16 16 16 15 13 12 14 15 17 19 18 18 19 17 15 14 13 14 15 15 15 15 16 17 17 16 15 15 14 14 12 11 11 10 8 7 6 4 4 4 3 4 6 7 8 9 11 12 13 12 11 10 10 9 8 9 10 11 12 14
22 23 23 23 23 24 24 25 26 26 25 26 25 22 19 18 18 17 15 17 19 21 22 21 19 17 15 14 14 13 13 14 13 14 16 16 17 19 17 16 16 15 15 15 16 16 16 16 17 18 17 17 16 15 15 14 12 11 11 10 9 8 6 5 3 3 5 7 8 9 11 11 10 9 9 8 9 9 9 9 9 9 10 12 15
20 22 23 25 24 21 20 21 22 20 17 15 15 14 12 12 13 12 11 12 14 15 17 18 18 19 19 18 17 15 14 14 15 16 16 14 13 13 14 17 17 16 16 16 17 18 18 18 18 18 18 18 16 16 16 15 14 13 11 10 7 5 4 3 4 5 5 6 7 7 7 6 5 4 5 5 5 6 6 8 9 11 14 15 17
22 23 23 24 23 20 16 17 18 18 17 16 15 14 14 13 14 14 14 15 15 16 17 17 17 19 21 20 19 18 17 18 18 18 15 11 6 8 13 16 15 15 16 18 20 21 20 20 20 21 20 18 17 16 16 15 14 12 10 8 7 5 5 6 5 5 5 4 3 2 2 3 4 4 5 6 7 8 9 11 13 16 17 17 18
21 22 22 21 20 19 17 17 18 18 18 18 18 17 17 17 18 18 18 18 18 18 18 17 16 16 17 17 17 20 21 21 17 12 10 9 9 11 13 14 14 15 15 17 19 21 21 21 21 22 23 21 18 16 15 13 11 10 8 8 7 6 5 4 2 1 1 2 2 4 5 6 7 8 9 10 10 11 12 14 16 18 18 19 20
19 20 21 21 21 20 20 19 19 19 18 18 18 19 18 18 18 19 20 20 20 20 19 18 16 14 13 13 12 13 14 14 14 14 13 11 11 11 12 13 13 14 15 15 17 19 21 21 21 22 22 21 19 17 14 12 11 9 8 7 7 5 4 3 3 4 4 5 6 7 7 8 9 10 11 12 12 14 15 17 17 18 19 20 22
19 20 21 22 22 22 21 19 18 17 17 17 18 19 20 18 17 17 18 19 19 19 20 20 19 15 12 10 9 8 7 10 14 16 16 15 13 11 10 10 10 12 13 15 16 17 19 21 22 21 19 18 17 16 14 12 10 9 8 7 7 6 6 5 5 6 7 7 7 7 7 8 9 10 10 12 14 15 16 16 17 18 19 21 23
Wind_Direction
141 138 144 153 162 170 170 161 162 161 161 168 165 159 160 157 156 154 153 150 146 149 153 150 148 153 145 129 124 120 119 118 114 115 109 103 100 98 98 98 105 112 116 116 114 133 154 162 167 164 167 177 183 186 185 184 185 183 180 177 175 173 171 169 181 185 174 161 196 263 257 273 287 293 294 279 259 257 259 256 257 258 266 267 255
142 146 156 159 164 175 177 170 170 166 164 168 165 160 161 160 160 157 157 155 153 155 156 155 155 158 153 140 134 128 124 120 112 115 119 111 104 101 100 102 107 109 105 111 117 127 141 148 162 167 168 178 182 183 183 180 182 184 179 175 172 172 180 188 189 185 171 165 158 116 275 274 283 286 294 293 274 261 259 256 254 249 250 312 327
151 159 170 162 164 176 180 176 175 170 165 166 165 162 161 162 164 162 159 158 160 164 164 163 161 158 150 141 136 127 122 121 110 110 117 116 113 108 104 102 108 113 105 105 105 105 129 142 140 146 161 177 184 187 188 182 182 186 186 188 186 187 211 226 207 195 174 161 154 116 289 279 298 287 291 301 281 261 261 258 250 239 234 248 312
170 176 187 173 166 176 183 179 175 172 166 165 165 163 163 166 168 166 161 160 166 169 163 156 146 140 138 134 132 124 120 121 116 114 116 114 115 116 112 104 102 109 113 112 101 88 98 132 140 136 143 161 181 192 191 186 186 186 185 193 197 195 204 216 205 195 180 160 142 110 144 131 311 272 275 300 280 258 262 265 258 257 250 247 261
179 182 188 184 171 176 182 179 174 172 170 168 168 167 167 170 172 170 165 166 172 164 152 145 136 131 129 127 125 122 123 124 119 117 115 110 109 109 110 109 101 98 107 118 107 89 90 105 121 124 136 153 171 182 176 171 175 175 174 184 192 195 198 188 174 191 201 197 173 136 120 181 223 214 240 283 272 259 262 263 262 263 267 272 272
178 180 184 186 179 175 178 180 175 173 173 172 171 171 172 174 173 172 170 171 171 163 156 151 142 137 135 131 127 126 129 130 127 125 122 116 112 109 105 103 100 97 101 108 101 93 92 99 108 107 106 117 128 147 160 159 155 158 164 172 183 195 197 177 171 185 201 204 196 185 173 176 188 170 156 277 282 275 266 266 280 276 273 277 276
178 183 185 184 180 174 177 181 177 174 176 175 173 174 175 174 172 173 174 173 168 164 165 160 151 147 147 142 136 137 138 135 134 131 127 123 117 113 107 100 99 101 102 100 97 95 95 104 110 106 102 103 105 112 127 134 127 133 147 132 127 167 191 184 178 182 180 187 202 212 216 208 204 186 171 264 307 292 291 303 311 302 292 288 285
186 184 183 181 179 177 180 183 179 176 176 177 176 175 174 173 172 176 177 176 174 172 173 169 161 157 156 151 147 148 146 139 138 135 129 127 122 115 111 106 103 105 104 99 98 93 87 95 106 106 106 104 100 103 111 115 109 110 120 114 101 115 155 162 158 169 169 171 190 197 213 233 228 213 213 210 163 305 317 322 324 317 309 307 305
182 176 176 177 178 181 183 184 182 176 176 178 178 177 177 175 175 178 179 178 180 180 178 175 166 161 161 158 154 151 146 141 140 135 129 128 125 122 119 116 111 108 108 105 104 97 85 89 97 99 103 107 104 105 108 110 109 108 111 108 101 105 116 119 115 122 128 130 150 159 152 160 157 164 229 255 223 243 296 300 324 331 323 328 333
176 171 173 174 180 185 185 185 183 178 177 180 179 177 178 178 177 178 179 181 184 183 180 175 168 167 169 163 153 147 144 142 141 137 134 132 130 129 126 122 119 114 113 111 109 106 95 89 90 90 92 96 100 106 110 108 104 104 108 109 105 106 112 114 109 106 106 106 116 127 123 109 99 81 45 23 348 275 293 309 340 343 326 330 342
158 136 96 147 190 194 189 186 184 179 178 177 178 181 183 184 183 179 179 184 186 183 179 175 173 176 176 167 155 150 148 145 145 145 144 141 138 136 133 130 127 122 120 117 112 112 108 99 93 93 91 88 88 95 100 102 103 104 109 117 116 112 114 116 114 108 105 103 104 106 102 97 90 71 52 44 44 36 360 332 343 346 339 336 340
111 104 80 57 207 202 193 190 181 175 178 178 179 185 187 187 185 180 181 186 185 181 178 176 179 182 176 166 159 156 155 152 151 153 150 146 143 141 140 138 134 130 127 124 120 118 116 113 109 106 103 99 96 98 101 104 108 111 113 117 120 122 125 126 122 117 114 107 102 102 101 97 89 78 66 54 50 47 48 28 353 355 348 337 342
95 110 121 92 91 163 178 187 179 175 182 184 183 185 185 185 184 182 183 186 184 180 177 176 182 186 175 166 164 162 162 158 156 157 154 152 150 148 149 146 143 141 137 132 128 124 122 123 124 120 116 114 111 112 116 117 116 116 115 110 109 116 122 126 123 122 125 118 108 106 105 102 95 85 73 66 63 56 52 40 3 5 353 332 343
85 92 93 79 59 88 158 190 193 186 185 186 184 184 184 182 181 181 181 184 182 176 176 177 184 191 180 170 168 167 166 163 160 161 159 157 156 156 156 155 152 152 148 142 133 130 130 128 131 133 130 126 120 118 122 121 117 114 111 105 102 108 111 112 114 118 126 127 121 111 102 107 110 102 82 68 62 50 48 37 6 4 352 339 344
64 57 45 28 9 2 348 246 208 195 187 187 186 185 184 183 182 180 175 178 175 170 175 181 187 195 187 175 172 172 171 165 163 167 165 161 162 163 163 162 160 160 156 149 139 139 143 137 135 137 136 135 131 128 129 126 120 115 113 110 103 101 102 103 106 112 123 127 119 105 96 103 121 124 99 59 59 57 50 37 22 19 357 342 339
53 46 30 13 6 358 349 330 205 192 184 181 182 180 178 178 178 173 171 172 170 170 180 185 188 197 192 180 176 176 173 168 167 171 169 166 166 167 169 168 165 163 160 151 146 151 155 149 144 139 138 141 139 136 134 132 134 130 125 119 110 104 100 101 103 107 120 124 113 97 80 74 81 92 54 30 60 78 66 44 20 22 25 348 332
59 51 27 9 10 8 14 76 114 153 160 156 156 156 148 125 122 143 158 163 165 176 184 184 188 195 194 182 178 177 176 173 171 173 172 170 170 169 171 172 168 166 162 155 154 161 165 162 158 152 148 144 142 147 147 143 148 144 135 124 119 124 115 102 102 101 110 117 111 101 68 45 38 56 52 45 63 78 75 59 19 14 25 20 350
70 50 18 12 20 19 35 85 101 109 120 128 138 148 146 133 134 149 155 159 181 200 189 182 185 185 186 186 181 178 179 177 175 175 173 172 171 170 171 173 173 170 165 160 161 169 174 174 173 168 165 155 149 159 165 162 166 156 146 146 145 151 145 122 121 114 106 113 118 121 104 16 24 51 55 47 55 63 60 51 24 10 16 24 28
81 58 26 30 35 34 43 64 91 110 118 125 137 150 154 160 175 184 182 181 201 212 190 180 181 172 175 190 187 181 180 180 179 177 176 174 173 171 172 174 174 172 168 165 166 172 178 180 182 179 175 168 164 173 181 176 183 182 170 176 182 179 171 158 170 191 170 120 129 138 142 348 4 34 36 29 37 42 37 30 36 42 11 352 340
110 97 57 50 51 51 54 57 70 87 101 125 146 157 158 164 179 186 188 193 200 197 181 177 178 171 174 187 188 185 183 183 182 180 179 179 176 172 172 175 176 174 172 170 170 173 177 182 189 191 189 182 177 183 191 187 190 197 192 193 199 196 195 196 202 222 232 224 130 147 164 316 339 359 21 10 1 352 344 347 357 11 17 308 302
116 109 76 69 67 64 64 63 66 71 77 107 140 156 160 167 178 183 189 194 190 181 176 174 174 173 175 181 181 180 180 181 183 181 177 178 179 177 174 175 176 177 176 174 173 176 179 183 191 198 202 197 191 192 198 199 199 201 199 205 212 205 203 212 220 226 227 233 260 226 232 286 307 304 186 224 287 298 291 302 308 299 296 295 287
118 118 99 77 75 74 73 69 67 69 70 83 115 140 156 170 178 180 183 187 182 173 170 171 172 172 176 182 175 168 166 165 175 180 173 167 172 174 175 177 176 176 178 177 176 178 184 187 193 202 207 207 206 205 206 206 206 206 206 211 215 209 209 219 223 220 221 230 242 242 247 263 272 292 303 271 289 307 295 313 323 299 293 312 309
123 123 111 85 76 78 79 74 71 71 71 74 86 99 118 151 170 174 172 173 173 168 165 166 166 162 169 183 181 174 170 159 165 173 168 162 161 156 160 171 172 172 173 175 178 182 186 189 194 202 208 212 213 212 214 215 212 213 216 217 216 213 212 219 222 217 219 230 236 235 241 244 245 271 295 287 304 323 313 316 328 330 319 326 330
118 113 107 98 89 84 82 80 79 77 75 75 78 83 85 99 137 156 156 158 163 164 163 161 156 153 165 185 188 187 186 175 166 168 170 170 166 155 150 156 165 170 171 171 176 180 183 186 192 199 209 218 221 220 219 219 218 220 222 221 219 218 218 221 224 220 219 228 233 231 229 230 238 258 274 274 286 296 293 290 294 299 303 309 316
116 116 110 105 100 95 92 93 92 90 86 82 80 82 81 81 91 113 132 150 162 162 159 156 156 162 176 186 185 185 184 181 177 174 175 176 172 167 159 152 159 167 170 171 173 175 177 179 184 189 197 215 229 231 227 225 224 224 225 224 222 223 224 224 225 225 224 230 232 226 217 220 234 247 251 252 263 269 269 270 279 290 292 292 299
127 128 129 126 118 109 106 107 105 101 98 94 90 87 86 84 84 87 92 104 133 150 149 146 150 158 166 171 173 176 176 176 176 174 175 175 170 169 169 162 161 164 169 174 177 180 183 180 177 191 216 237 244 243 240 236 230 226 225 226 226 227 227 226 226 227 229 232 225 212 206 215 227 233 232 238 250 254 257 267 277 286 289 289 294
128 127 129 129 127 127 126 122 115 108 104 101 98 95 92 89 86 88 91 92 98 111 118 120 125 127 127 127 127 126 134 151 160 163 168 173 173 176 180 180 179 175 174 177 182 193 200 203 217 249 259 260 258 256 255 251 241 232 227 226 227 227 227 226 225 225 226 226 217 205 206 215 220 224 229 236 245 251 258 264 270 278 286 292 296
61 94 109 118 125 135 139 134 125 117 112 109 105 100 99 96 92 94 97 96 95 99 104 111 115 113 111 111 108 100 79 66 106 142 154 166 180 191 201 211 215 210 205 202 209 226 228 227 241 249 244 250 257 257 257 257 252 241 231 228 226 225 225 223 222 223 223 222 220 221 223 223 224 231 237 242 247 250 251 255 270 283 289 292 295
7 48 93 118 123 126 126 124 121 118 114 111 109 107 106 105 103 101 101 105 113 116 115 120 126 126 127 126 125 131 130 93 65 113 120 131 153 167 197 235 239 229 225 224 231 244 243 239 244 244 241 248 255 255 254 257 257 249 237 229 225 223 222 220 218 218 219 219 221 226 226 226 232 239 244 248 250 248 251 265 283 290 289 291 294
187 182 161 145 131 127 125 121 119 118 116 113 114 115 114 112 111 109 107 111 119 119 116 118 121 125 132 131 126 137 154 161 163 151 126 124 145 171 196 230 242 239 240 242 241 243 244 243 244 246 249 253 254 256 258 259 259 253 241 229 224 223 220 216 214 212 211 212 212 211 215 224 237 244 248 250 251 254 264 277 285 287 286 291 295
155 298 260 154 130 124 123 122 124 125 126 125 124 123 122 120 117 114 111 114 116 116 117 121 121 119 125 129 126 132 148 154 152 149 147 154 171 179 190 217 237 244 246 247 243 241 242 243 243 245 251 256 258 259 259 258 255 251 242 232 224 221 217 213 212 211 207 204 206 209 216 228 240 246 250 251 255 265 276 282 286 289 287 287 292
110 317 324 339 89 113 111 112 116 122 128 131 128 125 125 127 125 123 124 124 122 121 122 125 126 126 128 131 132 138 143 141 137 136 139 147 157 164 182 209 227 234 235 237 239 241 245 248 248 250 255 261 263 261 260 259 256 251 244 234 224 218 213 211 211 210 206 204 210 217 224 232 239 243 246 250 258 269 277 281 285 287 281 276 281
166 169 76 2 350 48 93 96 100 105 113 128 135 135 136 140 139 138 142 144 142 141 140 137 136 140 143 142 140 140 138 134 133 138 139 144 155 167 189 204 212 218 222 227 231 237 241 242 245 251 258 265 266 265 265 266 261 253 242 230 222 217 213 211 210 208 206 206 212 217 219 225 232 238 245 252 259 264 270 275 278 279 275 272 277
112 120 95 58 354 22 75 81 82 84 85 105 129 134 140 151 153 153 158 162 160 157 156 148 137 136 143 149 142 133 130 129 132 145 162 173 178 185 207 221 239 238 229 236 248 253 246 236 245 261 266 270 269 267 268 267 262 254 239 223 217 214 209 206 203 200 198 202 206 206 209 216 226 239 250 253 255 258 263 269 270 268 265 265 272
47 55 73 69 26 33 65 69 62 59 61 88 123 132 142 161 174 174 173 174 171 168 168 162 152 148 151 155 147 134 128 130 137 149 167 180 189 201 204 228 269 268 262 264 270 280 276 262 261 270 278 282 281 278 276 273 268 259 236 214 208 205 199 193 189 188 191 196 197 198 206 215 224 241 253 251 250 255 259 259 256 253 255 262 272
57 48 45 39 26 19 24 30 31 30 34 59 98 121 143 178 189 176 175 185 178 172 174 170 161 165 174 167 156 147 141 143 152 169 183 187 183 189 203 228 251 255 260 260 260 274 281 261 249 250 258 272 284 288 284 276 256 228 203 191 188 186 183 182 185 191 198 198 199 208 225 236 239 247 259 261 260 261 259 255 253 254 261 268 275
76 65 46 27 17 6 357 358 6 12 23 39 38 25 24 1 357 145 173 221 204 179 178 173 165 173 185 175 165 163 167 172 180 186 195 207 209 210 226 238 245 257 262 255 251 255 256 242 235 238 238 243 262 275 270 240 201 185 175 170 172 168 161 166 177 188 203 214 230 242 249 254 251 253 261 264 264 263 259 257 260 264 270 274 278
82 85 67 30 5 344 338 349 354 351 356 9 11 9 10 353 347 4 1 312 220 141 147 165 171 180 180 172 170 176 182 188 194 197 210 231 233 238 250 251 257 270 272 258 242 233 226 225 235 237 225 213 217 226 227 217 204 193 182 174 172 165 154 157 167 178 212 238 240 238 240 248 254 258 260 255 251 249 247 251 259 267 273 276 279
34 66 53 17 334 287 272 256 261 302 322 335 334 324 321 324 328 335 339 346 358 4 6 35 104 120 127 150 173 185 187 188 196 211 228 234 234 242 255 265 268 274 283 269 235 219 213 215 228 230 213 196 198 206 215 218 213 211 207 200 191 177 163 157 159 158 176 212 228 235 243 254 260 257 252 245 241 241 245 254 266 278 286 288 288
356 5 2 353 346 332 322 318 284 270 298 315 303 282 278 289 301 305 308 317 327 330 334 343 354 358 356 359 278 214 210 222 234 237 232 228 231 237 249 264 270 278 292 279 231 211 205 204 210 212 203 196 200 204 211 216 214 213 213 207 199 189 177 167 155 136 119 153 236 248 255 259 253 243 239 240 245 255 267 278 288 296 299 300 299
340 340 342 340 336 333 332 328 321 313 307 305 295 279 271 270 270 274 280 286 292 293 293 296 304 310 305 301 302 300 296 279 255 239 227 222 222 228 242 260 272 283 290 267 214 199 194 191 192 194 190 189 196 202 207 210 209 210 209 203 196 189 184 179 166 139 97 65 63 215 221 222 219 226 241 263 284 294 297 300 302 304 307 310 310
329 328 331 331 326 323 323 321 320 318 317 315 306 291 279 268 258 260 266 267 268 270 276 283 288 292 290 287 284 283 290 299 282 249 235 225 220 226 240 254 270 281 270 214 189 184 181 176 174 175 179 180 186 199 206 204 202 207 210 206 203 199 196 195 185 165 106 52 59 144 165 179 227 269 296 307 309 309 310 312 315 318 322 325 323
318 316 317 317 315 313 312 312 312 310 309 309 305 295 286 276 267 266 265 263 262 264 271 277 278 277 274 271 273 281 288 295 296 291 284 273 258 249 242 242 255 261 224 185 177 175 171 168 164 164 170 179 184 191 198 198 197 200 201 201 204 209 214 221 219 213 227 360 25 149 184 285 293 298 310 315 315 317 321 327 329 331 333 331 323
310 307 306 307 305 302 299 297 294 294 294 293 291 288 283 271 267 270 268 266 268 270 270 270 270 273 274 273 274 279 283 286 288 286 283 279 270 260 247 237 237 227 195 178 173 172 170 164 161 161 167 175 179 181 186 192 194 194 195 198 202 208 218 223 223 227 239 258 270 273 284 295 299 305 312 309 304 310 319 322 322 323 325 324 319
312 310 309 306 302 299 295 291 288 286 285 282 278 273 266 264 272 278 277 275 274 272 270 266 264 267 270 269 266 267 275 280 277 274 271 268 264 261 249 227 212 203 192 180 174 174 171 163 159 161 165 169 172 174 177 184 189 188 182 176 172 167 157 149 151 175 214 233 247 261 276 290 299 305 303 289 278 283 293 302 313 321 324 324 324
312 313 316 315 312 308 304 299 294 289 284 280 276 268 260 263 268 270 273 275 272 269 265 261 259 263 265 261 257 259 269 276 275 274 273 270 270 266 246 213 197 197 193 183 175 172 168 162 161 164 165 165 168 173 175 176 175 170 158 147 143 141 134 134 153 196 221 236 251 264 277 289 298 306 307 299 294 293 295 303 317 327 328 328 326
305 308 312 312 310 310 314 315 314 311 309 309 307 300 294 291 287 284 289 288 281 274 268 260 260 266 267 260 253 250 253 256 261 268 273 278 281 267 231 202 191 189 185 180 175 171 168 166 165 167 166 164 166 170 170 167 163 158 150 144 144 152 169 200 232 244 250 261 270 277 289 303 320 341 351 352 349 339 327 323 325 327 325 322 319
302 303 303 302 298 297 304 312 314 316 319 321 318 315 312 311 309 312 314 309 300 292 283 273 271 275 271 259 246 241 243 249 255 259 260 255 243 218 204 195 191 191 189 184 179 176 178 180 176 170 165 162 164 166 162 158 159 160 162 169 179 194 212 222 236 256 267 272 280 305 358 15 20 15 6 0 354 345 335 328 324 321 318 314 311
302 301 300 299 296 296 298 299 298 302 307 309 306 303 301 298 295 298 304 307 306 302 294 283 275 273 272 265 252 245 244 244 240 230 218 203 185 184 191 194 198 205 207 202 193 187 187 189 183 174 167 164 163 164 162 161 166 172 177 183 183 188 199 205 210 224 174 136 83 59 49 32 15 3 356 352 346 339 332 325 321 319 316 312 310
303 304 304 302 299 297 296 293 291 292 295 296 296 296 296 295 290 287 288 290 293 295 294 289 281 267 259 256 250 241 234 222 203 184 175 171 167 173 184 189 194 202 208 212 208 198 191 188 182 174 171 171 166 162 162 168 174 177 177 175 169 167 167 156 125 103 99 85 62 50 40 20 6 359 354 349 342 335 330 325 322 319 316 314 313
302 299 296 292 290 290 289 288 290 293 292 289 288 287 288 290 288 281 275 274 277 280 281 281 280 272 259 246 235 229 219 197 182 173 167 163 158 156 166 177 185 193 198 203 203 194 187 185 179 170 166 164 159 157 160 163 163 164 159 151 142 128 120 118 110 92 79 70 59 43 23 6 359 353 343 335 331 328 326 324 322 320 319 320 319